FW0887 Weather Reports


time (UTC)temp
C
wind
direction
speed
KPH
gust
KPH
rain 1hr
cm
rain 24hr
cm
rain mn
cm
humidity
%
barometer
mb
20260904031503 13 179 0.0 0.0 0.00 0.30 0.00 91 1019.1
20260904030658 13 0.0 0.0 0.00 0.30 0.00 91 1020.2
20260904030002 13 179 0.0 0.0 0.00 0.30 0.00 91 1019.2
20260904024502 13 179 0.0 0.0 0.00 0.30 0.00 91 1019.2
20260904023001 13 179 0.0 0.0 0.00 0.30 0.00 92 1019.2
20260904021503 13 179 0.0 0.0 0.00 0.30 0.00 92 1019.3
20260904020611 13 0.0 0.0 0.00 0.30 0.00 91 1020.5
20260904020123 13 179 0.0 0.0 0.00 0.30 0.00 91 1019.5
20260904014646 13 179 0.0 0.0 0.00 0.30 0.00 91 1019.4
20260904013108 13 179 0.0 0.0 0.00 0.30 0.00 91 1019.3
20260904011605 13 179 0.0 0.0 0.00 0.30 0.00 91 1019.3
20260904010543 14 0.0 0.0 0.00 0.30 0.00 91 1020.7
20260904010058 14 179 0.0 0.0 0.00 0.30 0.00 91 1019.4
20260904004553 14 179 0.0 0.0 0.00 0.30 0.00 91 1019.5
20260904003059 14 179 0.0 1.6 0.00 0.30 0.00 91 1019.6
20260904001549 15 179 0.0 0.0 0.00 0.30 0.00 91 1019.6
20260904000513 15 0.0 0.0 0.00 0.30 0.00 92 1021.2
20260904000046 15 162 0.0 0.0 0.00 0.30 0.00 92 1019.8
20260903234545 15 28 0.0 0.0 0.00 0.30 0.00 91 1019.8
20260903233044 15 28 0.0 0.0 0.00 0.30 0.00 92 1020.1
20260903231543 15 28 0.0 0.0 0.00 0.30 0.00 92 1020.1
20260903230544 15 0.0 0.0 0.00 0.30 0.00 92 1021.6
20260903230057 15 28 0.0 0.0 0.00 0.30 0.00 92 1020.2
20260903224541 15 28 0.0 0.0 0.00 0.30 0.00 92 1020.1
20260903223040 15 28 0.0 0.0 0.00 0.30 0.00 91 1019.9
20260903221540 15 28 0.0 0.0 0.00 0.30 0.00 91 1020.0
20260903220515 15 0.0 0.0 0.00 0.30 0.30 91 1021.3
20260903220040 15 28 0.0 0.0 0.00 0.30 0.00 91 1020.0
20260903214543 15 28 0.0 0.0 0.00 0.30 0.30 91 1019.8
20260903213039 15 28 0.0 0.0 0.00 0.30 0.30 91 1020.0
20260903211535 15 28 0.0 0.0 0.00 0.30 0.30 91 1020.4
20260903210627 16 0.0 0.0 0.00 0.30 0.30 91 1021.4
20260903210035 15 28 0.0 0.0 0.00 0.30 0.30 91 1020.2
20260903204535 15 28 0.0 0.0 0.00 0.30 0.30 91 1020.3
20260903203034 15 28 0.0 0.0 0.00 0.30 0.30 91 1020.1
20260903201535 16 28 0.0 0.0 0.00 0.30 0.30 91 1020.1
20260903200556 16 0.0 0.0 0.00 0.30 0.30 91 1021.2
20260903200038 16 28 0.0 0.0 0.00 0.30 0.30 91 1020.1
20260903194534 16 28 0.0 0.0 0.00 0.30 0.30 91 1020.0
20260903193034 16 28 0.0 0.0 0.00 0.30 0.30 90 1020.1
20260903191531 16 28 0.0 0.0 0.00 0.30 0.30 90 1020.2
20260903190537 16 0.0 0.0 0.00 0.30 0.30 90 1020.9
20260903190030 16 28 0.0 0.0 0.00 0.30 0.30 90 1020.3
20260903184530 16 28 0.0 1.6 0.00 0.30 0.30 90 1020.3
20260903183030 16 28 0.0 0.0 0.00 0.30 0.30 90 1020.1
20260903181529 16 28 0.0 0.0 0.00 0.30 0.30 90 1020.0
20260903180508 16 0.0 0.0 0.00 0.30 0.30 90 1020.4
20260903180048 16 28 0.0 0.0 0.00 0.30 0.30 90 1019.9
20260903174528 16 28 0.0 0.0 0.05 0.30 0.30 89 1019.7
20260903173032 16 28 0.0 1.6 0.05 0.30 0.30 90 1019.6
20260903171527 16 28 0.0 3.2 0.05 0.30 0.30 89 1019.7
20260903170538 16 0.0 0.0 0.05 0.30 0.30 88 1020.7
20260903170034 16 28 0.0 1.6 0.05 0.30 0.30 89 1020.0
20260903164530 16 28 0.0 3.2 0.00 0.25 0.25 88 1020.4
20260903163024 16 28 0.0 1.6 0.00 0.25 0.25 88 1020.4
20260903161528 16 28 0.0 3.2 0.05 0.25 0.25 87 1020.3
20260903160510 17 0.0 1.6 0.15 0.25 0.25 87 1021.2
20260903160025 16 34 0.0 1.6 0.13 0.25 0.25 87 1020.7
20260903154524 16 154 0.0 1.6 0.15 0.25 0.25 87 1020.7
20260903153021 17 154 0.0 4.8 0.18 0.25 0.25 86 1020.0
20260903151520 17 218 0.0 3.2 0.15 0.18 0.18 86 1020.9
20260903150441 17 0.0 1.6 0.08 0.13 0.13 85 1021.6
20260903150020 17 218 0.0 4.8 0.08 0.13 0.13 85 1020.8
20260903144522 17 218 0.0 4.8 0.05 0.10 0.10 84 1020.5
20260903143021 18 210 0.0 3.2 0.05 0.08 0.08 82 1020.4
20260903141523 18 210 1.6 4.8 0.05 0.05 0.05 81 1020.5
20260903140510 19 0.0 1.6 0.05 0.05 0.05 79 1021.6
20260903140017 18 210 0.0 3.2 0.05 0.05 0.05 80 1020.4
20260903134517 19 210 0.0 3.2 0.05 0.05 0.05 77 1020.4
20260903133017 20 238 1.6 8.0 0.00 0.00 0.00 72 1020.9
20260903131515 21 257 3.2 9.7 0.00 0.00 0.00 66 1020.3
20260903130609 21 248 1.6 3.2 0.00 0.00 0.00 65 1021.7
20260903130014 21 204 4.8 16.1 0.00 0.00 0.00 64 1020.3
20260903124513 21 269 1.6 19.3 0.00 0.00 0.00 64 1020.3
20260903123023 21 223 6.4 16.1 0.00 0.00 0.00 64 1020.3
20260903121514 21 265 1.6 17.7 0.00 0.00 0.00 65 1020.4
20260903120536 22 225 6.4 12.9 0.00 0.00 0.00 62 1021.9
20260903120012 22 195 3.2 16.1 0.00 0.00 0.00 63 1020.6
20260903114511 22 209 9.7 24.1 0.00 0.00 0.00 60 1020.4
20260903113019 22 217 1.6 12.9 0.00 0.00 0.00 62 1020.5
20260903111509 22 198 3.2 14.5 0.00 0.00 0.00 62 1020.7
20260903110424 22 225 4.8 9.7 0.00 0.00 0.00 59 1022.2
20260903110008 22 306 1.6 19.3 0.00 0.00 0.00 59 1020.7
20260903104506 22 213 8.0 17.7 0.00 0.00 0.00 59 1020.8
20260903103005 22 254 4.8 17.7 0.00 0.00 0.00 61 1021.2
20260903101502 21 130 6.4 19.3 0.00 0.00 0.00 59 1021.1
20260903100514 21 203 1.6 3.2 0.00 0.00 0.00 60 1022.6
20260903100002 21 215 8.0 16.1 0.00 0.00 0.00 59 1021.2
20260903094602 21 278 3.2 17.7 0.00 0.00 0.00 64 1021.2
20260903093101 21 199 3.2 17.7 0.00 0.00 0.00 63 1021.5
20260903091557 21 277 1.6 9.7 0.00 0.00 0.00 63 1021.4
20260903090437 20 225 6.4 14.5 0.00 0.00 0.00 66 1022.8
20260903090052 20 209 1.6 14.5 0.00 0.00 0.00 65 1021.5
20260903084550 19 216 1.6 12.9 0.00 0.00 0.00 65 1021.5
20260903083046 19 210 3.2 12.9 0.00 0.00 0.00 68 1021.2
20260903081546 19 215 1.6 9.7 0.00 0.00 0.00 68 1021.0
20260903080528 19 0.0 0.0 0.00 0.00 0.00 72 1022.8
20260903080043 19 212 0.0 0.0 0.00 0.00 0.00 70 1021.3
20260903074543 18 215 0.0 0.0 0.00 0.00 0.00 73 1021.6
20260903073035 17 198 0.0 0.0 0.00 0.00 0.00 80 1021.6
20260903071531 16 198 0.0 0.0 0.00 0.00 0.00 88 1021.6
20260903070438 15 0.0 0.0 0.00 0.00 0.00 92 1022.9
20260903070032 15 197 0.0 0.0 0.00 0.00 0.00 91 1021.7
20260903064525 13 197 0.0 0.0 0.00 0.00 0.00 92 1021.8
20260903063025 12 197 0.0 0.0 0.00 0.00 0.00 91 1022.0
20260903061523 11 198 0.0 0.0 0.00 0.00 0.00 89 1021.9
20260903060417 11 0.0 0.0 0.00 0.00 0.00 89 1022.5
20260903060123 11 215 0.0 0.0 0.00 0.00 0.00 89 1021.9
20260903054531 11 215 0.0 0.0 0.00 0.00 0.00 88 1021.6
20260903053019 11 215 0.0 0.0 0.00 0.00 0.00 88 1021.5
20260903051519 11 215 0.0 0.0 0.00 0.00 0.00 88 1021.4
20260903050429 11 0.0 0.0 0.00 0.00 0.00 88 1022.3
20260903050018 11 215 0.0 0.0 0.00 0.00 0.00 88 1021.3
20260903044517 11 215 0.0 0.0 0.00 0.03 0.00 87 1021.2
20260903043017 11 215 0.0 0.0 0.00 0.03 0.00 87 1021.3
20260903041517 11 215 0.0 0.0 0.00 0.03 0.00 86 1021.2
20260903040404 11 0.0 0.0 0.00 0.03 0.00 86 1022.3
20260903040013 11 215 0.0 0.0 0.00 0.03 0.00 86 1021.3
20260903034514 11 215 0.0 0.0 0.00 0.03 0.00 86 1021.1
20260903033013 12 215 0.0 0.0 0.00 0.03 0.00 86 1021.3